RH
3 3 4 5 13 24 46 73 80 84 76 69 96 100 100 99 93 94 93 78 70 81 94 99 94 96 96 97 99 89 86 45 32 33 28 26 26 26 26 26 24 23 23
3 3 3 4 4 9 23 32 62 76 78 78 75 90 100 100 98 99 100 90 72 77 86 91 94 93 91 97 97 98 84 50 41 42 35 29 28 28 28 28 27 26 26
4 3 3 3 3 4 5 16 27 51 79 75 72 70 99 100 100 99 99 97 88 81 82 79 87 90 91 89 89 92 93 97 91 63 64 43 31 31 31 32 32 30 30
4 4 3 3 3 3 4 5 12 40 62 72 70 71 97 98 100 100 99 100 95 92 86 83 86 87 85 82 81 86 89 86 87 92 92 81 64 42 34 30 29 29 30
4 4 4 4 4 4 5 6 7 16 46 56 54 87 100 99 100 100 100 100 100 94 94 83 84 86 86 89 88 81 78 77 80 84 86 86 92 88 74 52 37 31 28
4 4 4 4 4 4 5 10 17 24 49 96 97 97 99 97 98 100 100 100 100 100 96 98 89 83 77 85 93 89 85 88 86 82 81 83 90 90 90 90 87 80 68
5 4 4 5 5 5 6 15 34 41 93 94 96 98 97 94 90 97 100 100 100 100 100 92 95 99 99 95 93 90 85 87 87 85 83 80 80 80 83 92 89 86 95
5 5 5 5 5 5 6 12 41 60 89 97 90 82 96 93 86 88 92 100 99 100 100 100 99 100 100 99 100 98 98 98 97 96 94 88 85 77 70 70 75 88 94
6 6 5 5 5 5 6 6 17 39 60 78 90 81 85 79 98 99 100 95 99 100 100 100 100 98 95 99 100 94 90 85 85 93 97 96 98 93 88 81 78 66 72
7 7 7 6 6 6 5 5 6 11 26 42 82 83 79 86 85 100 97 85 90 98 99 100 100 99 97 93 97 96 95 95 96 89 93 98 98 97 97 94 94 89 82
9 9 8 8 8 7 6 6 6 6 10 25 42 62 89 85 88 84 93 88 78 76 87 100 98 97 91 88 87 97 100 100 97 95 93 96 87 86 90 96 96 93 91
10 10 10 9 9 8 8 7 6 6 6 8 22 46 61 66 75 74 76 60 61 76 95 99 98 98 88 92 92 96 94 94 91 86 91 92 88 88 92 91 88 88 88
11 11 11 10 10 9 9 8 8 7 6 6 7 8 9 11 15 14 11 12 30 72 94 80 48 35 52 47 42 38 35 30 45 77 79 80 84 87 91 96 96 97 95
12 12 12 12 12 11 10 9 9 8 8 7 7 6 6 6 6 6 7 8 15 28 50 34 14 10 7 6 6 6 7 8 11 28 50 67 72 74 75 78 80 81 79
13 13 13 13 13 12 12 11 10 9 9 8 8 7 7 7 7 7 7 7 8 11 18 17 10 8 7 7 6 6 6 6 6 7 7 9 9 9 11 14 20 21 30
13 14 14 14 14 14 14 13 12 11 10 10 9 9 8 8 8 8 8 7 7 8 9 9 9 9 9 8 8 7 7 7 6 5 4 4 5 6 7 7 8 11 25
14 14 15 15 16 16 15 15 14 13 12 12 11 10 10 10 9 9 9 9 9 9 10 10 11 11 11 10 10 10 10 10 9 8 8 6 5 5 4 4 4 4 8
17 17 17 17 17 17 17 17 16 16 15 14 14 13 12 12 11 11 11 11 10 10 10 11 12 12 12 11 11 11 11 12 11 10 9 10 8 9 9 8 5 4 4
19 20 20 20 19 19 19 19 19 18 18 17 17 16 16 16 15 15 15 14 14 14 14 15 15 16 16 15 15 15 14 13 13 12 12 12 12 12 10 9 9 8 6
21 22 23 24 24 24 23 22 21 20 20 20 19 19 19 19 19 18 18 18 18 18 18 19 19 20 20 20 20 18 16 17 17 17 16 15 15 14 14 12 12 10 10
22 23 23 24 24 24 25 26 26 26 24 23 22 21 21 21 21 21 21 21 21 21 22 22 22 23 24 24 24 23 23 22 22 21 19 19 17 16 15 16 16 14 12
21 22 22 21 21 21 22 22 24 25 27 27 27 26 24 23 23 22 22 22 23 23 23 24 24 25 26 27 27 28 28 28 26 26 24 21 22 20 19 19 18 17 15
20 20 20 20 19 18 18 18 19 20 22 24 26 27 27 27 26 25 24 24 24 24 24 25 25 26 27 29 29 30 30 31 31 30 30 27 26 26 25 24 22 19 18
18 19 19 20 20 19 19 18 18 18 19 20 22 23 25 26 27 28 28 27 26 26 26 26 26 26 28 29 30 31 32 32 33 34 35 35 34 30 28 26 25 23 20
20 17 17 18 18 18 20 21 21 21 20 20 21 23 24 26 27 28 29 29 29 28 28 27 27 28 29 30 32 34 33 36 35 35 39 44 42 39 34 28 26 25 24
32 31 29 28 30 30 30 30 30 28 26 24 25 26 28 28 29 29 31 31 31 31 31 30 31 32 34 36 36 35 40 45 46 49 57 54 53 54 43 35 31 29 27
Wind_Speed
9 10 10 10 8 6 8 8 8 6 6 7 11 12 12 13 11 9 3 2 4 7 10 10 9 11 10 11 10 9 8 8 8 8 8 8 8 8 9 9 10 11 12
7 8 9 9 8 8 6 7 9 7 5 6 6 11 14 10 11 11 9 6 4 7 6 12 7 8 8 10 12 14 13 11 10 13 11 9 7 7 7 8 9 11 12
5 5 7 8 8 8 8 6 7 9 6 6 5 7 10 13 12 14 12 11 10 7 7 12 8 7 9 9 10 11 11 12 15 14 14 13 9 8 8 9 9 11 11
4 4 5 6 8 7 7 6 7 8 8 7 7 9 10 12 11 11 12 12 12 11 10 10 11 8 7 7 6 6 8 9 10 11 15 14 14 13 11 11 12 13 15
4 4 5 6 7 8 8 8 8 9 9 6 8 10 12 10 12 10 10 13 14 13 10 10 11 10 8 7 10 10 10 8 8 9 11 13 15 14 13 12 11 12 13
4 4 5 6 7 8 8 10 10 13 14 17 17 16 15 13 8 9 11 12 15 15 14 12 8 4 1 3 3 4 4 7 9 10 11 11 10 11 13 13 12 13 13
2 3 4 5 6 7 9 11 12 17 22 23 24 22 18 14 11 8 8 7 10 9 6 6 4 4 5 3 3 4 4 5 6 6 9 12 13 13 13 12 12 13 14
2 2 3 5 6 8 9 10 13 16 20 17 16 18 18 18 14 10 7 7 5 9 13 8 7 5 5 6 7 8 9 10 11 12 9 9 10 13 14 15 16 15 15
4 3 4 5 6 7 7 9 10 11 12 14 14 10 8 6 15 12 13 9 7 7 6 3 2 1 5 5 4 3 5 7 10 11 10 12 13 11 12 11 13 14 18
4 4 4 5 6 6 7 8 9 8 9 9 11 9 10 19 8 8 9 9 9 9 7 5 3 1 1 4 7 9 10 10 12 13 12 12 13 12 12 10 11 13 14
4 5 5 5 5 6 7 7 8 8 8 7 8 11 15 13 14 12 10 7 4 3 2 1 1 4 7 9 11 11 11 11 14 15 15 15 15 17 18 18 16 15 14
5 5 5 5 5 6 6 7 7 8 9 8 8 8 8 6 12 8 9 7 8 5 3 2 2 6 8 10 10 11 12 13 13 13 14 16 17 18 16 14 18 17 17
8 7 5 4 4 5 6 6 6 7 8 8 8 8 8 8 8 7 8 9 9 8 5 1 4 5 6 9 10 11 12 13 14 15 15 16 17 18 19 18 18 18 18
9 7 6 5 5 5 4 5 5 6 6 7 7 7 7 8 8 7 7 8 9 6 5 1 5 6 8 7 8 8 9 10 11 11 12 14 16 19 20 20 20 20 21
11 9 7 6 5 4 4 4 4 4 5 5 5 5 5 6 6 7 6 5 6 5 5 2 4 6 6 8 8 10 11 12 12 12 13 14 15 16 17 18 19 21 22
13 11 10 8 7 5 4 3 3 3 3 3 3 3 4 4 4 5 6 5 5 4 4 2 4 6 8 9 9 11 11 12 14 15 15 15 15 16 19 21 22 22 21
15 14 13 11 9 7 6 5 4 3 2 2 2 1 1 2 2 2 3 3 3 4 4 5 7 8 9 10 11 12 13 13 15 16 16 15 15 19 21 21 22 23 23
18 17 15 14 12 10 9 7 6 5 4 4 3 2 1 1 1 2 2 3 4 4 5 6 7 9 11 12 13 15 15 17 19 19 15 17 18 22 22 22 22 23 24
21 20 18 16 13 12 11 10 9 9 8 7 6 5 4 4 3 4 4 4 4 5 6 7 8 9 10 12 12 13 15 16 18 19 18 17 22 23 22 23 24 23 24
25 23 20 18 17 15 14 13 12 12 11 10 9 9 8 8 7 7 7 7 7 7 8 10 11 13 14 15 17 18 16 17 20 20 21 22 25 25 25 23 22 24 26
28 26 24 23 21 20 18 16 15 15 14 14 13 13 13 12 11 11 11 11 11 11 12 13 14 15 16 18 20 21 22 22 22 22 24 25 27 28 30 31 29 30 28
34 31 30 27 26 24 22 21 20 20 19 19 18 17 17 16 16 15 15 15 15 15 15 17 17 18 19 20 22 23 25 28 29 25 32 26 29 29 30 29 34 36 32
39 36 34 32 31 29 27 26 26 25 24 24 23 22 22 21 20 20 19 19 19 18 19 19 19 19 20 20 22 23 23 25 27 27 33 35 29 34 32 31 32 34 33
43 41 38 37 35 32 32 31 30 31 29 28 27 27 27 25 24 24 23 23 22 21 21 22 23 22 22 22 22 23 24 28 29 28 29 38 33 34 35 32 33 34 35
46 44 43 40 39 38 36 35 35 36 34 32 30 30 30 29 27 27 27 26 25 23 23 23 25 25 25 24 22 24 25 28 31 32 31 29 34 39 37 36 33 35 36
46 45 44 42 40 41 37 37 37 39 38 36 35 33 32 31 29 28 29 28 29 25 24 24 25 26 25 25 24 24 26 27 27 30 20 30 34 36 42 43 39 40 41
Wind_Direction
52 60 69 77 90 128 165 162 148 163 149 186 198 196 179 180 180 146 128 87 98 76 98 93 73 59 66 44 59 71 73 63 50 49 40 40 39 38 35 28 22 18 14
52 55 59 65 76 92 126 169 172 174 186 190 163 188 208 189 185 162 144 122 112 100 80 114 92 72 57 58 47 37 39 47 52 47 31 21 23 27 24 20 15 13 8
52 53 59 60 63 72 88 116 156 165 146 140 152 174 174 192 184 185 161 144 127 116 90 69 106 80 58 55 44 33 37 31 22 29 25 23 14 9 7 6 5 4 3
60 55 59 67 68 68 77 87 113 149 170 166 115 120 153 168 183 164 168 155 144 136 130 107 105 91 60 47 40 31 22 12 11 8 9 12 23 23 11 0 358 356 356
63 64 66 70 70 73 78 83 98 125 137 133 143 105 109 141 169 141 152 168 158 150 135 116 121 103 87 65 45 32 11 355 351 355 1 2 359 8 13 13 8 1 356
51 58 66 73 75 74 80 82 87 117 119 96 101 96 91 99 125 164 129 151 142 157 141 134 136 135 65 162 150 90 35 19 9 350 331 325 339 353 355 353 2 4 5
68 61 74 78 81 83 82 82 86 111 111 105 104 98 99 100 107 111 142 181 166 164 177 183 178 177 194 241 270 291 298 308 323 338 345 338 321 312 319 334 343 335 342
106 84 75 85 85 80 80 91 98 120 132 136 122 106 99 95 104 114 121 157 189 157 181 227 224 239 281 298 288 290 304 305 311 307 314 319 326 339 318 308 313 325 331
132 121 105 91 87 88 90 92 102 111 128 149 156 140 136 130 107 99 102 121 110 101 92 122 156 247 287 294 326 5 10 14 17 3 323 308 313 318 321 325 322 308 308
143 132 119 107 102 99 92 92 91 98 99 112 147 161 142 152 144 144 114 99 102 108 111 108 89 71 327 324 334 328 317 320 331 337 350 336 324 311 317 317 318 317 315
156 140 129 117 108 103 100 97 96 96 101 105 116 129 145 159 166 162 162 148 120 114 130 162 278 286 296 303 310 318 334 334 340 331 321 321 333 338 322 311 311 303 304
178 160 146 130 118 106 98 96 98 98 99 103 112 131 139 142 176 181 164 163 153 130 111 81 330 274 282 285 291 299 306 315 316 323 322 321 319 320 318 319 316 316 312
188 177 164 147 131 119 113 105 98 96 97 98 103 113 120 127 131 133 135 144 146 151 146 250 350 359 325 318 318 319 318 318 307 298 304 313 315 321 325 321 319 319 316
198 189 174 162 151 136 123 114 109 106 103 103 103 104 106 109 110 112 115 129 135 153 154 70 24 8 6 5 6 356 348 345 346 342 328 314 313 313 315 317 318 319 318
205 198 189 181 172 158 145 131 119 107 100 95 96 99 102 105 107 108 106 101 119 136 135 104 22 359 14 19 19 16 13 9 5 2 356 349 336 331 326 319 315 314 316
210 207 204 200 197 189 176 160 145 132 121 116 112 108 107 103 102 108 117 120 120 116 133 51 14 12 11 10 13 14 15 10 5 4 2 358 354 351 348 344 341 336 329
216 214 213 211 208 204 200 201 200 196 184 179 162 139 110 91 73 40 29 31 29 28 34 17 2 3 358 6 7 6 9 5 359 357 356 356 356 354 351 347 344 340 337
218 218 219 219 218 218 218 220 224 228 229 232 231 229 231 244 288 312 331 338 332 331 332 335 341 343 343 346 349 349 353 355 352 356 1 357 352 350 352 347 342 338 335
221 221 222 223 225 227 230 233 236 239 241 244 249 254 262 268 275 283 290 298 304 308 312 316 319 325 330 327 329 336 337 339 342 344 346 343 344 344 345 344 340 339 337
226 225 226 227 228 231 234 238 243 249 254 255 256 257 258 260 263 268 276 281 285 291 299 306 312 319 322 322 324 320 316 325 329 330 329 330 331 332 338 344 338 334 334
231 230 230 232 234 237 241 245 248 252 256 259 260 260 261 264 267 271 276 279 282 286 291 296 302 307 311 313 317 322 321 319 323 322 318 324 324 327 330 336 334 331 332
234 234 236 238 240 244 246 249 252 256 257 260 263 265 267 267 267 269 271 272 274 279 285 290 297 303 308 312 314 318 320 321 324 326 315 317 320 318 322 326 325 326 331
238 238 241 243 246 250 252 254 255 256 258 260 262 264 265 268 269 270 271 272 274 278 282 285 289 294 298 303 308 310 313 315 316 320 316 311 316 313 314 317 317 317 319
241 243 246 248 250 252 254 256 258 260 259 260 262 264 265 267 270 271 271 271 274 277 280 282 287 290 292 297 300 303 308 308 308 311 311 309 312 304 307 312 315 315 315
244 247 250 252 255 256 256 257 257 258 259 259 261 262 262 262 263 266 269 269 270 272 274 277 281 283 284 288 293 297 301 303 306 308 312 312 312 308 302 300 303 306 310
249 251 254 256 258 259 257 257 257 258 258 257 254 255 258 260 260 261 265 269 270 270 269 270 271 274 279 284 287 291 296 298 302 307 299 307 307 316 313 300 301 300 303